Sioux Falls, SD

9:41 PM CDT on August 28, 2016 (GMT -0500)
Foss

Weather History for KFSD - July, 2014

Change the Weather History Date:

Monday, July 28, 2014

  Actual Average Record
Temperature  
Mean Temperature 65 °F 73 °F  
Max Temperature 75 °F 84 °F 102 °F (1975)
Min Temperature 55 °F 62 °F 44 °F (2013)
Degree Days  
Heating Degree Days 0 0  
Month to date heating degree days 13 0  
Since 1 June heating degree days 45 51  
Since 1 July heating degree days 13 0  
Cooling Degree Days 0 8  
Month to date cooling degree days 169 232  
Year to date cooling degree days 358 403  
Since 1 June cooling degree days 305 367  
Growing Degree Days 15 (Base 50)    
Moisture  
Dew Point 55 °F    
Average Humidity 71    
Maximum Humidity 93    
Minimum Humidity 49    
Precipitation  
Precipitation 0.00 in 0.09 in 2.60 in (1948)
Month to date precipitation 0.80 2.79  
Year to date precipitation 19.48 16.04  
Snow  
Snow 0.00 in 0.00 in 0.00 in ()
Month to date snowfall T 0.0  
Since 1 June snowfall T 0.0  
Since 1 July snowfall T 0.0  
Snow Depth 0.00 in    
Sea Level Pressure  
Sea Level Pressure 30.24 in    
Wind  
Wind Speed 8 mph (NNW)    
Max Wind Speed 16 mph    
Max Gust Speed 22 mph    
Visibility 10 miles    
Events      
T = Trace of Precipitation, MM = Missing Value Source: NWS Daily Summary

Daily Weather History Graph

Daily Weather History Graph

Search for Another Location

Airport or City:

Trip Planner

Search our weather history database for the weather conditions in past years. The results will help you decide how hot, cold, wet, or windy it might be!

Date:

Astronomy

Jul. 28, 2014 Rise Set
Actual Time 6:12 AM CDT 8:54 PM CDT
Civil Twilight 5:39 AM CDT 9:27 PM CDT
Nautical Twilight 4:57 AM CDT 10:08 PM CDT
Astronomical Twilight 4:09 AM CDT 10:56 PM CDT
Moon 7:59 AM CDT (7/28) 9:30 PM CDT (7/28)
Length of Visible Light 15h 48m
Length of Day
14h 42m
Waxing Crescent, 3% of the Moon is Illuminated
Jul 28
Waxing Crescent
Aug 3
First Quarter
Aug 10
Full
Aug 17
Last Quarter
Aug 25
New

Hourly Weather History & Observations

Time (CDT) Temp. Dew Point Humidity Pressure Visibility Wind Dir Wind Speed Gust Speed Precip Events Conditions
12:56 AM 59.0 °F 55.9 °F 90% 30.22 in 10.0 mi NNW 6.9 mph - N/A   Clear
1:56 AM 57.9 °F 54.0 °F 87% 30.22 in 10.0 mi NW 5.8 mph - N/A   Clear
2:56 AM 57.0 °F 54.0 °F 89% 30.22 in 10.0 mi NW 5.8 mph - N/A   Clear
3:56 AM 55.9 °F 53.1 °F 90% 30.23 in 10.0 mi WNW 8.1 mph - N/A   Partly Cloudy
4:56 AM 57.9 °F 55.0 °F 90% 30.24 in 10.0 mi NW 8.1 mph - N/A   Overcast
5:56 AM 59.0 °F 55.0 °F 87% 30.25 in 10.0 mi NW 9.2 mph - N/A   Overcast
6:56 AM 60.1 °F 57.0 °F 90% 30.26 in 10.0 mi NNW 6.9 mph - N/A   Overcast
7:56 AM 62.1 °F 57.9 °F 86% 30.27 in 10.0 mi NNW 9.2 mph - N/A   Mostly Cloudy
8:56 AM 64.9 °F 57.9 °F 78% 30.28 in 10.0 mi NNW 11.5 mph - N/A   Mostly Cloudy
9:36 AM 66.0 °F 57.9 °F 75% 30.28 in 10.0 mi North 11.5 mph - N/A   Mostly Cloudy
9:56 AM 66.9 °F 57.9 °F 73% 30.27 in 10.0 mi North 13.8 mph - N/A   Mostly Cloudy
10:56 AM 69.1 °F 59.0 °F 70% 30.27 in 10.0 mi North 10.4 mph - N/A   Mostly Cloudy
11:56 AM 69.1 °F 57.9 °F 68% 30.27 in 10.0 mi NNW 16.1 mph - N/A   Mostly Cloudy
12:14 PM 71.1 °F 57.9 °F 63% 30.27 in 10.0 mi North 15.0 mph - N/A   Mostly Cloudy
12:56 PM 73.0 °F 55.9 °F 55% 30.25 in 10.0 mi NNW 9.2 mph 16.1 mph N/A   Mostly Cloudy
1:56 PM 71.1 °F 54.0 °F 55% 30.26 in 10.0 mi North 9.2 mph 16.1 mph N/A   Mostly Cloudy
2:56 PM 73.9 °F 55.0 °F 52% 30.25 in 10.0 mi North 9.2 mph 21.9 mph N/A   Scattered Clouds
3:56 PM 73.9 °F 54.0 °F 50% 30.24 in 10.0 mi NW 9.2 mph - N/A   Scattered Clouds
4:56 PM 73.9 °F 55.0 °F 52% 30.22 in 10.0 mi NNW 10.4 mph - N/A   Scattered Clouds
5:56 PM 71.1 °F 54.0 °F 55% 30.22 in 10.0 mi NNE 8.1 mph - N/A   Scattered Clouds
6:56 PM 72.0 °F 54.0 °F 53% 30.20 in 10.0 mi North 10.4 mph - N/A   Partly Cloudy
7:56 PM 70.0 °F 54.0 °F 57% 30.19 in 10.0 mi NNE 8.1 mph - N/A   Partly Cloudy
8:56 PM 64.9 °F 54.0 °F 68% 30.20 in 10.0 mi North 3.5 mph - N/A   Partly Cloudy
9:56 PM 61.0 °F 54.0 °F 78% 30.21 in 10.0 mi North 4.6 mph - N/A   Clear
10:56 PM 59.0 °F 53.1 °F 81% 30.22 in 10.0 mi Calm Calm - N/A   Clear
11:56 PM 57.0 °F 54.0 °F 89% 30.22 in 10.0 mi Calm Calm - N/A   Clear